This is the latest recevied weather packets stored in our database for station/object N7ZAP. If no packets are shown the sender has not sent any weather packets the latest 10 day(s).
| Time | Temp. | Humidity | Pressure | Rain* | Wind** | Luminosity | Snow |
|---|---|---|---|---|---|---|---|
| 1788051524 | 26.11° C | 49% | 1018.8 hPa | 0 mm | - | - | - |
| 1788051222 | 25.56° C | 47% | 1018.7 hPa | 0 mm | - | - | - |
| 1788050922 | 25.56° C | 47% | 1018.9 hPa | 0 mm | - | - | - |
| 1788050617 | 25.56° C | 46% | 1018.9 hPa | 0 mm | - | - | - |
| 1788050316 | 25° C | 50% | 1019.1 hPa | 0 mm | - | - | - |
| 1788050016 | 25.56° C | 51% | 1019.2 hPa | 0 mm | - | - | - |
| 1788049713 | 25.56° C | 47% | 1019.6 hPa | 0 mm | - | - | - |
| 1788049409 | 25.56° C | 44% | 1019.7 hPa | 0 mm | - | - | - |
| 1788049104 | 25° C | 48% | 1019.8 hPa | 0 mm | - | - | - |
| 1788048800 | 25.56° C | 49% | 1019.5 hPa | 0 mm | - | - | - |
| 1788048499 | 27.22° C | 48% | 1019.6 hPa | 0 mm | - | - | - |
| 1788048197 | 31.67° C | 35% | 1019.5 hPa | 0 mm | - | - | - |
| 1788047895 | 34.44° C | 23% | 1018.7 hPa | 0 mm | - | - | - |
| 1788047590 | 34.44° C | 21% | 1017.8 hPa | 0 mm | - | - | - |
| 1788047289 | 34.44° C | 22% | 1017.8 hPa | 0 mm | - | - | - |
| 1788046984 | 34.44° C | 21% | 1017.7 hPa | 0 mm | - | - | - |
| 1788046683 | 35° C | 21% | 1017.5 hPa | 0 mm | - | - | - |
| 1788046378 | 35° C | 20% | 1017.6 hPa | 0 mm | - | - | - |
| 1788046075 | 35° C | 21% | 1017.5 hPa | 0 mm | - | - | - |
| 1788045772 | 35.56° C | 21% | 1017.5 hPa | 0 mm | - | - | - |
| 1788045467 | 35.56° C | 20% | 1017.8 hPa | 0 mm | - | - | - |
| 1788045163 | 35.56° C | 21% | 1017.6 hPa | 0 mm | - | - | - |
| 1788044863 | 35° C | 21% | 1017.7 hPa | 0 mm | - | - | - |
| 1788044557 | 35.56° C | 21% | 1017.8 hPa | 0 mm | - | - | - |
| 1788044256 | 37.22° C | 19% | 1017.8 hPa | 0 mm | - | - | - |
* Rain latest hour (hover to see other rain measurements)
** Current wind speed in m/s (hover to see current wind gust speed)